Wenatchee, WA
on Monday, December 10, 2012

Monday
Previous Day Next Day
Daily Summary
 ActualAverageRecord
Temperature
Mean Temperature °F 26°F  
Max Temperature 34°F 32°F 55°F (2014)
Min Temperature 26°F 21°F 2°F (2007)
Degree Days
Heating Degree Days 35 39  
Month to date heating degree days 261 379  
Since 1 July heating degree days 1420 2261  
Cooling Degree Days 0 0  
Month to date cooling degree days 0 0  
Year to date cooling degree days 888 249  
Moisture
Dew Point 28°F   
Average Humidity 87    
Maximum Humidity 92    
Minimum Humidity 82    
Precipitation
Precipitation 0.00 in 0.08 in 0.64 in (1992)
Month to date precipitation 0.32 0.85  
Year to date precipitation 7.83 15.40  
Snow
Snow 0.00 in 0.50 in in ()
Month to date snowfall 4.8  
Since 1 July snowfall 12.7  
Snow Depth in   
Wind
Wind Speed 7 mph   
Max Wind Speed 18 mph   
Max Gust Speed 29 mph   
Visibility 5 miles   
Events Fog   

Key: T is trace of precipitation, MM is missing value
Source: NWS Daily Summary
Time(PST)TemperatureDew PointHumidity Pressure Visibility Wind DirectionWind SpeedGust SpeedPrecipitationEvents Conditions
12:55 AM 28.0°F 25.0°F 88% 30.25 in 8.0 miles WSW 4.6 mph - N/A   Partly Cloudy
1:55 AM 28.0°F 24.1°F 85% 30.25 in 9.0 miles South 4.6 mph - N/A   Clear
2:55 AM 28.0°F 24.1°F 85% 30.28 in 8.0 miles East 3.5 mph - N/A   Clear
3:15 AM 28.4°F 24.8°F 86% 30.24 in 8.0 miles Calm Calm - N/A   Mostly Cloudy
3:45 AM 30.2°F 24.8°F 80% 30.25 in 10.0 miles Calm Calm - N/A   Scattered Clouds
4:55 AM 27.0°F 23.0°F 85% 30.30 in 9.0 miles ENE 5.8 mph - N/A   Clear
5:55 AM 28.0°F 24.1°F 85% 30.29 in 9.0 miles East 4.6 mph - N/A   Clear
6:55 AM 28.9°F 26.1°F 89% 30.29 in 10.0 miles East 6.9 mph - N/A   Clear
7:55 AM 30.0°F 26.1°F 85% 30.28 in 10.0 miles East 9.2 mph - N/A   Clear
8:55 AM 30.9°F 27.0°F 85% 30.28 in 8.0 miles East 12.7 mph - N/A   Clear
9:55 AM 32.0°F 28.0°F 85% 30.28 in 8.0 miles East 9.2 mph - N/A   Clear
10:55 AM 33.1°F 28.9°F 85% 30.27 in 9.0 miles East 8.1 mph - N/A   Clear
11:55 AM 34.0°F 28.9°F 82% 30.24 in 9.0 miles East 10.4 mph - N/A   Clear
12:55 PM 34.0°F 30.0°F 85% 30.22 in 10.0 miles East 11.5 mph - N/A   Clear
1:55 PM 33.1°F 28.9°F 85% 30.21 in 8.0 miles East 11.5 mph 20.7 mph N/A   Clear
2:43 PM 33.8°F 28.4°F 81% 30.15 in 6.0 miles East 17.3 mph - N/A   Partly Cloudy
2:55 PM 33.1°F 28.9°F 85% 30.19 in 6.0 miles East 15.0 mph 20.7 mph N/A   Scattered Clouds
3:41 PM 32.0°F 28.4°F 87% 30.16 in 4.0 miles East 11.5 mph - N/A   Mostly Cloudy
3:55 PM 32.0°F 28.9°F 88% 30.19 in 3.0 miles East 10.4 mph - N/A   Overcast
4:11 PM 32.0°F 28.4°F 87% 30.15 in 2.5 miles East 12.7 mph - N/A   Overcast
4:37 PM 32.0°F 28.4°F 87% 30.14 in 1.5 miles ESE 9.2 mph - N/A   Overcast
4:55 PM 30.9°F 28.9°F 92% 30.18 in 0.8 miles East 6.9 mph - N/A   Mist
5:17 PM 30.2°F 28.4°F 93% 30.13 in 0.5 miles East 9.2 mph 17.3 mph N/A Fog Light Freezing Fog
5:29 PM 30.2°F 28.4°F 93% 30.13 in 0.2 miles East 10.4 mph - N/A Fog Light Freezing Fog
5:55 PM 30.9°F 28.9°F 92% 30.17 in 0.2 miles East 6.9 mph - N/A Fog Light Freezing Fog
6:55 PM 30.9°F 28.9°F 92% 30.15 in 0.2 miles ESE 4.6 mph - N/A Fog Light Freezing Fog
7:55 PM 30.9°F 28.9°F 92% 30.13 in 0.2 miles ESE 5.8 mph - N/A Fog Light Freezing Fog
8:55 PM 30.9°F 28.9°F 92% 30.12 in 0.2 miles East 6.9 mph - N/A Fog Light Freezing Fog
9:55 PM 30.9°F 28.9°F 92% 30.09 in 0.2 miles East 6.9 mph - N/A Fog Light Freezing Fog
10:55 PM 30.9°F 28.9°F 92% 30.07 in 0.2 miles ESE 4.6 mph - N/A Fog Light Freezing Fog
11:55 PM 30.9°F 28.9°F 92% 30.02 in 0.2 miles ESE 4.6 mph - N/A Fog Light Freezing Fog
Moon Phase
Dec. 10 Dec. 13 Dec. 20 Dec. 28 Jan. 04
Sunrise:07:37 AM (PST) Moon Rise:04:19 AM (PST)12/10
Sunset:04:10 PM (PST) Moon Set:02:09 PM (PST)12/10

Copyright © 2014 The Weather Underground, Inc.